EN

Hourly Weather Top

Today, 12 April, Monday

Time Temperature Precipitation Wind Pressure Humidity
00:00 +21°C° 0 mm 1 mps 685 mmHg 91%
01:00 +20°C° 0 mm 1 mps 685 mmHg 93%
02:00 +20°C° 0 mm 1 mps 685 mmHg 93%
03:00 +20°C° 0 mm 1 mps 685 mmHg 93%
04:00 +20°C° 0 mm 1 mps 684 mmHg 93%
05:00 +21°C° 0 mm 1 mps 685 mmHg 86%
06:00 +20°C° 0 mm 0 mps 685 mmHg 80%
07:00 +21°C° 0 mm 0 mps 686 mmHg 74%
08:00 +26°C° 0 mm 1 mps 686 mmHg 64%
09:00 +29°C° 0 mm 1 mps 687 mmHg 53%
10:00 +32°C° 0 mm 1 mps 687 mmHg 42%
11:00 +33°C° 0 mm 1 mps 687 mmHg 39%
12:00 +34°C° 0 mm 1 mps 686 mmHg 36%
13:00 +35°C° 0 mm 2 mps 685 mmHg 34%
14:00 +31°C° 0.6 mm 2 mps 684 mmHg 46%
15:00 +28°C° 0.6 mm 2 mps 684 mmHg 58%
16:00 +26°C° 0.6 mm 2 mps 683 mmHg 70%
17:00 +24°C° 0.6 mm 2 mps 684 mmHg 76%
18:00 +23°C° 0.6 mm 1 mps 684 mmHg 83%
19:00 +22°C° 0 mm 1 mps 684 mmHg 89%
20:00 +21°C° 0.1 mm 1 mps 685 mmHg 90%
21:00 +21°C° 0.1 mm 1 mps 685 mmHg 90%
22:00 +21°C° 0.1 mm 1 mps 685 mmHg 91%
23:00 +21°C° 0 mm 1 mps 685 mmHg 92%

Tomorrow, 13 April, Tuesday

Time Temperature Precipitation Wind Pressure Humidity
00:00 +21°C° 0 mm 1 mps 684 mmHg 92%
01:00 +18°C° 0 mm 0 mps 684 mmHg 93%
02:00 +18°C° 0 mm 0 mps 684 mmHg 93%
03:00 +18°C° 0 mm 0 mps 684 mmHg 93%
04:00 +18°C° 0 mm 0 mps 684 mmHg 93%
05:00 +19°C° 0 mm 0 mps 684 mmHg 88%
06:00 +20°C° 0 mm 0 mps 685 mmHg 84%
07:00 +21°C° 0 mm 0 mps 685 mmHg 80%
08:00 +26°C° 0 mm 1 mps 686 mmHg 69%
09:00 +29°C° 0 mm 1 mps 686 mmHg 57%
10:00 +31°C° 0 mm 1 mps 687 mmHg 46%
11:00 +32°C° 0 mm 1 mps 686 mmHg 42%
12:00 +33°C° 0 mm 1 mps 685 mmHg 37%
13:00 +35°C° 0 mm 2 mps 684 mmHg 32%
14:00 +32°C° 0 mm 1 mps 684 mmHg 40%
15:00 +30°C° 0 mm 1 mps 683 mmHg 47%
16:00 +26°C° 0 mm 0 mps 683 mmHg 54%
17:00 +27°C° 0.2 mm 1 mps 683 mmHg 59%
18:00 +26°C° 0.2 mm 1 mps 683 mmHg 65%
19:00 +25°C° 0.2 mm 1 mps 683 mmHg 71%
20:00 +24°C° 0 mm 1 mps 684 mmHg 73%
21:00 +24°C° 0 mm 1 mps 684 mmHg 76%
22:00 +23°C° 0 mm 1 mps 684 mmHg 79%
23:00 +23°C° 0.2 mm 1 mps 684 mmHg 81%

Day after tomorrow, 14 April, Wednesday

Time Temperature Precipitation Wind Pressure Humidity
00:00 +22°C° 0.2 mm 1 mps 684 mmHg 83%
01:00 +22°C° 0.2 mm 1 mps 683 mmHg 85%
02:00 +19°C° 0.1 mm 0 mps 683 mmHg 85%
03:00 +19°C° 0.1 mm 0 mps 683 mmHg 86%
04:00 +19°C° 0.1 mm 0 mps 683 mmHg 87%
05:00 +20°C° 0 mm 0 mps 683 mmHg 82%
06:00 +21°C° 0 mm 0 mps 684 mmHg 78%
07:00 +22°C° 0 mm 0 mps 685 mmHg 74%
08:00 +24°C° 0.1 mm 0 mps 685 mmHg 66%
09:00 +29°C° 0.1 mm 1 mps 686 mmHg 57%
10:00 +31°C° 0.1 mm 1 mps 686 mmHg 49%
11:00 +32°C° 0.2 mm 1 mps 685 mmHg 45%
12:00 +33°C° 0.2 mm 1 mps 685 mmHg 42%
13:00 +34°C° 0.2 mm 1 mps 684 mmHg 38%
14:00 +31°C° 0.2 mm 1 mps 683 mmHg 47%
15:00 +29°C° 0.2 mm 1 mps 682 mmHg 57%
16:00 +27°C° 0.2 mm 1 mps 682 mmHg 66%
17:00 +25°C° 1.8 mm 1 mps 682 mmHg 76%
18:00 +24°C° 1.8 mm 1 mps 682 mmHg 85%
19:00 +22°C° 1.8 mm 1 mps 683 mmHg 95%
20:00 +22°C° 0.2 mm 1 mps 683 mmHg 95%
21:00 +22°C° 0.2 mm 1 mps 683 mmHg 95%
22:00 +21°C° 0.2 mm 1 mps 684 mmHg 95%
23:00 +21°C° 0 mm 1 mps 683 mmHg 95%

15 April, Thursday

Time Temperature Precipitation Wind Pressure Humidity
00:00 +21°C° 0 mm 1 mps 683 mmHg 95%
01:00 +19°C° 0 mm 0 mps 683 mmHg 95%
02:00 +19°C° 0 mm 0 mps 683 mmHg 95%
03:00 +19°C° 0 mm 0 mps 682 mmHg 94%
04:00 +19°C° 0 mm 0 mps 682 mmHg 94%
05:00 +19°C° 0 mm 0 mps 683 mmHg 91%
06:00 +20°C° 0 mm 0 mps 683 mmHg 89%
07:00 +21°C° 0 mm 0 mps 684 mmHg 87%
08:00 +23°C° 0.1 mm 0 mps 684 mmHg 76%
09:00 +27°C° 0.1 mm 1 mps 685 mmHg 65%
10:00 +30°C° 0.1 mm 1 mps 685 mmHg 54%
11:00 +30°C° 0.4 mm 1 mps 685 mmHg 56%
12:00 +30°C° 0.4 mm 1 mps 684 mmHg 57%
13:00 +30°C° 0.4 mm 1 mps 684 mmHg 59%
14:00 +29°C° 1 mm 1 mps 683 mmHg 64%
15:00 +27°C° 1 mm 1 mps 683 mmHg 70%
16:00 +26°C° 1 mm 1 mps 682 mmHg 76%
17:00 +25°C° 2.8 mm 1 mps 682 mmHg 82%
18:00 +23°C° 2.8 mm 1 mps 682 mmHg 89%
19:00 +21°C° 2.8 mm 1 mps 682 mmHg 96%
20:00 +21°C° 0.1 mm 1 mps 683 mmHg 96%
21:00 +21°C° 0.1 mm 1 mps 683 mmHg 95%
22:00 +21°C° 0.1 mm 1 mps 684 mmHg 95%
23:00 +21°C° 0.3 mm 1 mps 683 mmHg 95%

16 April, Friday

Time Temperature Precipitation Wind Pressure Humidity
00:00 +20°C° 0.3 mm 1 mps 683 mmHg 94%
01:00 +20°C° 0.3 mm 1 mps 683 mmHg 94%
02:00 +20°C° 0 mm 1 mps 683 mmHg 94%
03:00 +20°C° 0 mm 1 mps 683 mmHg 94%
04:00 +20°C° 0 mm 1 mps 682 mmHg 93%
05:00 +19°C° 0 mm 0 mps 683 mmHg 90%
06:00 +20°C° 0 mm 0 mps 683 mmHg 87%
07:00 +21°C° 0 mm 0 mps 684 mmHg 84%
08:00 +23°C° 0.1 mm 0 mps 685 mmHg 74%
09:00 +28°C° 0.1 mm 1 mps 685 mmHg 64%
10:00 +30°C° 0.1 mm 1 mps 686 mmHg 54%
11:00 +31°C° 0.4 mm 1 mps 685 mmHg 51%
12:00 +31°C° 0.4 mm 1 mps 685 mmHg 48%
13:00 +32°C° 0.4 mm 1 mps 684 mmHg 45%
14:00 +30°C° 0.9 mm 1 mps 683 mmHg 57%
15:00 +27°C° 0.9 mm 1 mps 683 mmHg 68%
16:00 +25°C° 0.9 mm 1 mps 682 mmHg 80%
17:00 +24°C° 2.1 mm 1 mps 682 mmHg 85%
18:00 +23°C° 2.1 mm 1 mps 683 mmHg 90%
19:00 +21°C° 2.1 mm 1 mps 683 mmHg 95%
20:00 +21°C° 0.1 mm 1 mps 684 mmHg 96%
21:00 +21°C° 0.1 mm 1 mps 684 mmHg 96%
22:00 +21°C° 0.1 mm 1 mps 684 mmHg 97%
23:00 +20°C° 0 mm 1 mps 684 mmHg 97%

17 April, Saturday

Time Temperature Precipitation Wind Pressure Humidity
00:00 +20°C° 0 mm 1 mps 684 mmHg 97%
01:00 +20°C° 0 mm 1 mps 684 mmHg 97%
02:00 +19°C° 0 mm 1 mps 684 mmHg 96%
03:00 +19°C° 0 mm 1 mps 683 mmHg 95%
04:00 +18°C° 0 mm 1 mps 683 mmHg 94%
05:00 +19°C° 0 mm 1 mps 684 mmHg 91%
06:00 +20°C° 0 mm 1 mps 685 mmHg 88%
07:00 +19°C° 0 mm 0 mps 685 mmHg 84%
08:00 +21°C° 0 mm 0 mps 686 mmHg 75%
09:00 +25°C° 0 mm 1 mps 686 mmHg 65%
10:00 +28°C° 0 mm 1 mps 687 mmHg 55%
11:00 +29°C° 0.1 mm 1 mps 686 mmHg 52%
12:00 +30°C° 0.1 mm 1 mps 686 mmHg 48%
13:00 +31°C° 0.1 mm 1 mps 685 mmHg 45%
14:00 +30°C° 0.2 mm 1 mps 685 mmHg 51%
15:00 +28°C° 0.2 mm 1 mps 684 mmHg 58%
16:00 +27°C° 0.2 mm 1 mps 684 mmHg 64%
17:00 +25°C° 0.1 mm 1 mps 684 mmHg 70%
18:00 +24°C° 0.1 mm 1 mps 684 mmHg 77%
19:00 +22°C° 0.1 mm 1 mps 685 mmHg 83%
20:00 +22°C° 0.2 mm 1 mps 685 mmHg 87%
21:00 +21°C° 0.2 mm 1 mps 685 mmHg 90%
22:00 +20°C° 0.2 mm 1 mps 686 mmHg 94%
23:00 +20°C° 0 mm 1 mps 685 mmHg 95%
Show more

We Need Your Consent

Meteoprog and our Service Providers may store and access personal data such as cookies, device identifiers or other similar technologies on your device and process such data to personalise content and ads, as well as provide social media features and to analyse the traffic.

  • Store and/or access information on your device

    Cookies, device identifiers or other information can be stored or accessed on your device for the purposes indicated above.

  • Personalised ads and content, ad and content measurement, audience insights, and products development

    Ads and content can be personalised based on a profile. More data can be added to better personalise ads and content. Ad and content performance can be measured. Insights about the audience who saw the ads and content can be derived. Such data can be used to develop or improve user’s experience, systems and software.

By clicking ‘I Agree’ you will allow the use of indicated cookies, device identifiers, web beacons or other similar technologies. Your settings can be changed in the browser on your device.

For certain purposes, legitimate interests may be relied on, rather than consent. You can read more about this in our Privacy and Cookie Policy.